Location: Rowland
(34.5359°N, 79.2929°W)
Time: 19:04:37
(UTC+00:00)

Transit 2A - Pass Details

Date: 06 October 2022
Orbit: 598 x 959 km, 66.7° (Epoch: 03 December)

Event Time Altitude Azimuth Distance (km) Brightness Sun altitude
Rises 12:38:09 0° 333° (NNW) 3,017 8.7 15.8°
Reaches altitude 10° 12:40:22 10° 333° (NNW) 2,147 8.0 16.2°
Maximum altitude 12:45:15 89° 248° (WSW) 747 6.3 17.1°
Drops below altitude 10° 12:50:41 10° 156° (SSE) 2,373 9.3 18.2°
Sets 12:53:14 0° 156° (SSE) 3,360 10.0 18.7°
